Year,Month,Day,Hour,Minute,Value (Times are PST for barometer in hPa)
2015,02,07,00,00,990.86
2015,02,07,00,01,990.79
2015,02,07,00,02,990.82
2015,02,07,00,03,990.82
2015,02,07,00,04,990.79
2015,02,07,00,05,990.79
2015,02,07,00,06,990.82
2015,02,07,00,07,990.82
2015,02,07,00,08,990.89
2015,02,07,00,09,990.93
2015,02,07,00,10,990.86
2015,02,07,00,11,990.86
2015,02,07,00,12,990.79
2015,02,07,00,13,990.76
2015,02,07,00,14,990.72
2015,02,07,00,15,990.65
2015,02,07,00,16,990.65
2015,02,07,00,17,990.65
2015,02,07,00,18,990.65
2015,02,07,00,19,990.76
2015,02,07,00,20,990.82
2015,02,07,00,21,990.82
2015,02,07,00,22,990.82
2015,02,07,00,23,990.79
2015,02,07,00,24,990.82
2015,02,07,00,25,990.79
2015,02,07,00,26,990.82
2015,02,07,00,27,990.79
2015,02,07,00,28,990.86
2015,02,07,00,29,990.82
2015,02,07,00,30,990.82
2015,02,07,00,31,990.89
2015,02,07,00,32,990.86
2015,02,07,00,33,990.93
2015,02,07,00,34,990.93
2015,02,07,00,35,990.86
2015,02,07,00,36,990.93
2015,02,07,00,37,990.93
2015,02,07,00,38,990.93
2015,02,07,00,39,990.86
2015,02,07,00,40,990.86
2015,02,07,00,41,990.86
2015,02,07,00,42,990.76
2015,02,07,00,43,990.76
2015,02,07,00,44,990.76
2015,02,07,00,45,990.79
2015,02,07,00,46,990.82
2015,02,07,00,47,990.82
2015,02,07,00,48,990.76
2015,02,07,00,49,990.79
2015,02,07,00,50,990.76
2015,02,07,00,51,990.79
2015,02,07,00,52,990.82
2015,02,07,00,53,990.86
2015,02,07,00,54,990.86
2015,02,07,00,55,990.79
2015,02,07,00,56,990.79
2015,02,07,00,57,990.72
2015,02,07,00,58,990.72
2015,02,07,00,59,990.76
2015,02,07,01,00,990.79
2015,02,07,01,01,990.82
2015,02,07,01,02,990.72
2015,02,07,01,03,990.65
2015,02,07,01,04,990.62
2015,02,07,01,05,990.65
2015,02,07,01,06,990.72
2015,02,07,01,07,990.69
2015,02,07,01,08,990.76
2015,02,07,01,09,990.79
2015,02,07,01,10,990.76
2015,02,07,01,11,990.69
2015,02,07,01,12,990.65
2015,02,07,01,13,990.65
2015,02,07,01,14,990.65
2015,02,07,01,15,990.59
2015,02,07,01,16,990.69
2015,02,07,01,17,990.72
2015,02,07,01,18,990.72
2015,02,07,01,19,990.79
2015,02,07,01,20,990.82
2015,02,07,01,21,990.89
2015,02,07,01,22,990.82
2015,02,07,01,23,990.76
2015,02,07,01,24,990.79
2015,02,07,01,25,990.76
2015,02,07,01,26,990.76
2015,02,07,01,27,990.82
2015,02,07,01,28,990.76
2015,02,07,01,29,990.76
2015,02,07,01,30,990.82
2015,02,07,01,31,990.86
2015,02,07,01,32,990.93
2015,02,07,01,33,990.93
2015,02,07,01,34,990.96
2015,02,07,01,35,991.03
2015,02,07,01,36,991.03
2015,02,07,01,37,990.99
2015,02,07,01,38,990.96
2015,02,07,01,39,990.99
2015,02,07,01,40,990.96
2015,02,07,01,41,991.03
2015,02,07,01,42,990.99
2015,02,07,01,43,991.03
2015,02,07,01,44,991.06
2015,02,07,01,45,991.13
2015,02,07,01,46,991.09
2015,02,07,01,47,991.13
2015,02,07,01,48,991.13
2015,02,07,01,49,991.16
2015,02,07,01,50,991.09
2015,02,07,01,51,991.06
2015,02,07,01,52,990.99
2015,02,07,01,53,991.06
2015,02,07,01,54,991.09
2015,02,07,01,55,991.06
2015,02,07,01,56,991.03
2015,02,07,01,57,991.13
2015,02,07,01,58,991.13
2015,02,07,01,59,991.13
2015,02,07,02,00,991.13
2015,02,07,02,01,991.16
2015,02,07,02,02,991.13
2015,02,07,02,03,991.16
2015,02,07,02,04,991.16
2015,02,07,02,05,991.13
2015,02,07,02,06,991.13
2015,02,07,02,07,991.09
2015,02,07,02,08,991.09
2015,02,07,02,09,991.09
2015,02,07,02,10,991.13
2015,02,07,02,11,991.09
2015,02,07,02,12,991.09
2015,02,07,02,13,991.03
2015,02,07,02,14,991.06
2015,02,07,02,15,991.06
2015,02,07,02,16,991.06
2015,02,07,02,17,990.96
2015,02,07,02,18,990.99
2015,02,07,02,19,990.93
2015,02,07,02,20,990.93
2015,02,07,02,21,990.96
2015,02,07,02,22,990.96
2015,02,07,02,23,990.96
2015,02,07,02,24,990.96
2015,02,07,02,25,990.93
2015,02,07,02,26,990.86
2015,02,07,02,27,990.89
2015,02,07,02,28,990.89
2015,02,07,02,29,990.93
2015,02,07,02,30,990.89
2015,02,07,02,31,990.89
2015,02,07,02,32,990.89
2015,02,07,02,33,990.86
2015,02,07,02,34,990.89
2015,02,07,02,35,990.86
2015,02,07,02,36,990.89
2015,02,07,02,37,990.82
2015,02,07,02,38,990.86
2015,02,07,02,39,990.89
2015,02,07,02,40,990.82
2015,02,07,02,41,990.86
2015,02,07,02,42,990.86
2015,02,07,02,43,990.82
2015,02,07,02,44,990.86
2015,02,07,02,45,990.86
2015,02,07,02,46,990.93
2015,02,07,02,47,990.96
2015,02,07,02,48,990.96
2015,02,07,02,49,990.96
2015,02,07,02,50,990.96
2015,02,07,02,51,990.93
2015,02,07,02,52,990.99
2015,02,07,02,53,990.99
2015,02,07,02,54,990.99
2015,02,07,02,55,990.93
2015,02,07,02,56,990.99
2015,02,07,02,57,990.99
2015,02,07,02,58,990.96
2015,02,07,02,59,990.96
2015,02,07,03,00,990.93
2015,02,07,03,01,990.93
2015,02,07,03,02,990.96
2015,02,07,03,03,990.89
2015,02,07,03,04,990.89
2015,02,07,03,05,990.96
2015,02,07,03,06,990.96
2015,02,07,03,07,990.99
2015,02,07,03,08,990.99
2015,02,07,03,09,990.99
2015,02,07,03,10,991.03
2015,02,07,03,11,991.03
2015,02,07,03,12,990.99
2015,02,07,03,13,991.03
2015,02,07,03,14,991.03
2015,02,07,03,15,991.06
2015,02,07,03,16,991.03
2015,02,07,03,17,990.99
2015,02,07,03,18,990.99
2015,02,07,03,19,990.99
2015,02,07,03,20,991.03
2015,02,07,03,21,991.03
2015,02,07,03,22,990.99
2015,02,07,03,23,990.96
2015,02,07,03,24,991.03
2015,02,07,03,25,991.03
2015,02,07,03,26,991.03
2015,02,07,03,27,991.03
2015,02,07,03,28,990.99
2015,02,07,03,29,991.06
2015,02,07,03,30,991.03
2015,02,07,03,31,991.03
2015,02,07,03,32,990.99
2015,02,07,03,33,991.03
2015,02,07,03,34,991.03
2015,02,07,03,35,991.06
2015,02,07,03,36,991.06
2015,02,07,03,37,991.03
2015,02,07,03,38,991.09
2015,02,07,03,39,991.06
2015,02,07,03,40,991.03
2015,02,07,03,41,990.99
2015,02,07,03,42,990.96
2015,02,07,03,43,991.06
2015,02,07,03,44,991.06
2015,02,07,03,45,991.03
2015,02,07,03,46,991.09
2015,02,07,03,47,991.03
2015,02,07,03,48,991.06
2015,02,07,03,49,991.06
2015,02,07,03,50,991.06
2015,02,07,03,51,991.09
2015,02,07,03,52,991.06
2015,02,07,03,53,991.09
2015,02,07,03,54,991.13
2015,02,07,03,55,991.06
2015,02,07,03,56,991.06
2015,02,07,03,57,991.09
2015,02,07,03,58,991.06
2015,02,07,03,59,991.03
2015,02,07,04,00,991.06
2015,02,07,04,01,991.03
2015,02,07,04,02,990.99
2015,02,07,04,03,990.99
2015,02,07,04,04,990.99
2015,02,07,04,05,990.99
2015,02,07,04,06,990.96
2015,02,07,04,07,990.99
2015,02,07,04,08,990.96
2015,02,07,04,09,990.93
2015,02,07,04,10,990.93
2015,02,07,04,11,990.89
2015,02,07,04,12,990.93
2015,02,07,04,13,990.89
2015,02,07,04,14,990.86
2015,02,07,04,15,990.86
2015,02,07,04,16,990.89
2015,02,07,04,17,990.86
2015,02,07,04,18,990.89
2015,02,07,04,19,990.93
2015,02,07,04,20,990.89
2015,02,07,04,21,990.96
2015,02,07,04,22,990.96
2015,02,07,04,23,991.03
2015,02,07,04,24,991.03
2015,02,07,04,25,991.03
2015,02,07,04,26,991.03
2015,02,07,04,27,990.99
2015,02,07,04,28,990.99
2015,02,07,04,29,990.96
2015,02,07,04,30,990.96
2015,02,07,04,31,990.96
2015,02,07,04,32,990.93
2015,02,07,04,33,990.96
2015,02,07,04,34,990.89
2015,02,07,04,35,990.89
2015,02,07,04,36,990.89
2015,02,07,04,37,990.89
2015,02,07,04,38,990.93
2015,02,07,04,39,990.89
2015,02,07,04,40,990.89
2015,02,07,04,41,990.86
2015,02,07,04,42,990.89
2015,02,07,04,43,990.82
2015,02,07,04,44,990.82
2015,02,07,04,45,990.82
2015,02,07,04,46,990.79
2015,02,07,04,47,990.82
2015,02,07,04,48,990.82
2015,02,07,04,49,990.82
2015,02,07,04,50,990.79
2015,02,07,04,51,990.79
2015,02,07,04,52,990.76
2015,02,07,04,53,990.76
2015,02,07,04,54,990.79
2015,02,07,04,55,990.82
2015,02,07,04,56,990.76
2015,02,07,04,57,990.76
2015,02,07,04,58,990.76
2015,02,07,04,59,990.79
2015,02,07,05,00,990.82
2015,02,07,05,01,990.86
2015,02,07,05,02,990.82
2015,02,07,05,03,990.86
2015,02,07,05,04,990.86
2015,02,07,05,05,990.86
2015,02,07,05,06,990.86
2015,02,07,05,07,990.86
2015,02,07,05,08,990.86
2015,02,07,05,09,990.89
2015,02,07,05,10,990.89
2015,02,07,05,11,990.93
2015,02,07,05,12,990.96
2015,02,07,05,13,990.99
2015,02,07,05,14,990.96
2015,02,07,05,15,991.06
2015,02,07,05,16,991.06
2015,02,07,05,17,991.06
2015,02,07,05,18,991.09
2015,02,07,05,19,991.09
2015,02,07,05,20,991.06
2015,02,07,05,21,991.06
2015,02,07,05,22,991.06
2015,02,07,05,23,991.03
2015,02,07,05,24,990.99
2015,02,07,05,25,990.96
2015,02,07,05,26,990.99
2015,02,07,05,27,990.99
2015,02,07,05,28,990.96
2015,02,07,05,29,990.93
2015,02,07,05,30,990.96
2015,02,07,05,31,990.93
2015,02,07,05,32,990.96
2015,02,07,05,33,990.93
2015,02,07,05,34,990.93
2015,02,07,05,35,990.96
2015,02,07,05,36,990.99
2015,02,07,05,37,990.93
2015,02,07,05,38,990.93
2015,02,07,05,39,990.93
2015,02,07,05,40,990.99
2015,02,07,05,41,990.96
2015,02,07,05,42,990.96
2015,02,07,05,43,990.99
2015,02,07,05,44,990.99
2015,02,07,05,45,991.03
2015,02,07,05,46,990.99
2015,02,07,05,47,990.99
2015,02,07,05,48,990.96
2015,02,07,05,49,990.96
2015,02,07,05,50,991.03
2015,02,07,05,51,991.03
2015,02,07,05,52,991.06
2015,02,07,05,53,991.09
2015,02,07,05,54,991.09
2015,02,07,05,55,991.13
2015,02,07,05,56,991.16
2015,02,07,05,57,991.20
2015,02,07,05,58,991.16
2015,02,07,05,59,991.20
2015,02,07,06,00,991.23
2015,02,07,06,01,991.20
2015,02,07,06,02,991.16
2015,02,07,06,03,991.23
2015,02,07,06,04,991.20
2015,02,07,06,05,991.20
2015,02,07,06,06,991.26
2015,02,07,06,07,991.26
2015,02,07,06,08,991.26
2015,02,07,06,09,991.30
2015,02,07,06,10,991.26
2015,02,07,06,11,991.26
2015,02,07,06,12,991.26
2015,02,07,06,13,991.30
2015,02,07,06,14,991.30
2015,02,07,06,15,991.33
2015,02,07,06,16,991.37
2015,02,07,06,17,991.37
2015,02,07,06,18,991.40
2015,02,07,06,19,991.40
2015,02,07,06,20,991.43
2015,02,07,06,21,991.43
2015,02,07,06,22,991.50
2015,02,07,06,23,991.50
2015,02,07,06,24,991.50
2015,02,07,06,25,991.57
2015,02,07,06,26,991.47
2015,02,07,06,27,991.47
2015,02,07,06,28,991.43
2015,02,07,06,29,991.40
2015,02,07,06,30,991.43
2015,02,07,06,31,991.40
2015,02,07,06,32,991.43
2015,02,07,06,33,991.43
2015,02,07,06,34,991.37
2015,02,07,06,35,991.40
2015,02,07,06,36,991.43
2015,02,07,06,37,991.40
2015,02,07,06,38,991.47
2015,02,07,06,39,991.43
2015,02,07,06,40,991.50
2015,02,07,06,41,991.50
2015,02,07,06,42,991.50
2015,02,07,06,43,991.53
2015,02,07,06,44,991.50
2015,02,07,06,45,991.50
2015,02,07,06,46,991.53
2015,02,07,06,47,991.60
2015,02,07,06,48,991.60
2015,02,07,06,49,991.64
2015,02,07,06,50,991.60
2015,02,07,06,51,991.57
2015,02,07,06,52,991.60
2015,02,07,06,53,991.60
2015,02,07,06,54,991.70
2015,02,07,06,55,991.70
2015,02,07,06,56,991.74
2015,02,07,06,57,991.70
2015,02,07,06,58,991.70
2015,02,07,06,59,991.77
2015,02,07,07,00,991.81
2015,02,07,07,01,991.74
2015,02,07,07,02,991.81
2015,02,07,07,03,991.77
2015,02,07,07,04,991.81
2015,02,07,07,05,991.81
2015,02,07,07,06,991.81
2015,02,07,07,07,991.81
2015,02,07,07,08,991.81
2015,02,07,07,09,991.81
2015,02,07,07,10,991.84
2015,02,07,07,11,991.87
2015,02,07,07,12,991.94
2015,02,07,07,13,991.91
2015,02,07,07,14,991.94
2015,02,07,07,15,991.94
2015,02,07,07,16,991.98
2015,02,07,07,17,991.94
2015,02,07,07,18,991.94
2015,02,07,07,19,991.94
2015,02,07,07,20,991.94
2015,02,07,07,21,991.94
2015,02,07,07,22,991.94
2015,02,07,07,23,991.94
2015,02,07,07,24,991.94
2015,02,07,07,25,991.98
2015,02,07,07,26,992.04
2015,02,07,07,27,992.04
2015,02,07,07,28,992.08
2015,02,07,07,29,992.11
2015,02,07,07,30,992.14
2015,02,07,07,31,992.14
2015,02,07,07,32,992.21
2015,02,07,07,33,992.25
2015,02,07,07,34,992.28
2015,02,07,07,35,992.31
2015,02,07,07,36,992.31
2015,02,07,07,37,992.31
2015,02,07,07,38,992.31
2015,02,07,07,39,992.38
2015,02,07,07,40,992.38
2015,02,07,07,41,992.35
2015,02,07,07,42,992.38
2015,02,07,07,43,992.42
2015,02,07,07,44,992.42
2015,02,07,07,45,992.42
2015,02,07,07,46,992.48
2015,02,07,07,47,992.45
2015,02,07,07,48,992.45
2015,02,07,07,49,992.48
2015,02,07,07,50,992.55
2015,02,07,07,51,992.52
2015,02,07,07,52,992.55
2015,02,07,07,53,992.52
2015,02,07,07,54,992.55
2015,02,07,07,55,992.55
2015,02,07,07,56,992.55
2015,02,07,07,57,992.55
2015,02,07,07,58,992.62
2015,02,07,07,59,992.62
2015,02,07,08,00,992.55
2015,02,07,08,01,992.69
2015,02,07,08,02,992.62
2015,02,07,08,03,992.58
2015,02,07,08,04,992.62
2015,02,07,08,05,992.69
2015,02,07,08,06,992.65
2015,02,07,08,07,992.72
2015,02,07,08,08,992.69
2015,02,07,08,09,992.72
2015,02,07,08,10,992.79
2015,02,07,08,11,992.79
2015,02,07,08,12,992.75
2015,02,07,08,13,992.75
2015,02,07,08,14,992.75
2015,02,07,08,15,992.82
2015,02,07,08,16,992.82
2015,02,07,08,17,992.79
2015,02,07,08,18,992.86
2015,02,07,08,19,992.82
2015,02,07,08,20,992.79
2015,02,07,08,21,992.86
2015,02,07,08,22,992.86
2015,02,07,08,23,992.92
2015,02,07,08,24,992.92
2015,02,07,08,25,992.96
2015,02,07,08,26,992.99
2015,02,07,08,27,992.99
2015,02,07,08,28,993.03
2015,02,07,08,29,993.06
2015,02,07,08,30,993.09
2015,02,07,08,31,993.09
2015,02,07,08,32,993.13
2015,02,07,08,33,993.13
2015,02,07,08,34,993.13
2015,02,07,08,35,993.13
2015,02,07,08,36,993.16
2015,02,07,08,37,993.19
2015,02,07,08,38,993.16
2015,02,07,08,39,993.13
2015,02,07,08,40,993.16
2015,02,07,08,41,993.19
2015,02,07,08,42,993.19
2015,02,07,08,43,993.30
2015,02,07,08,44,993.30
2015,02,07,08,45,993.30
2015,02,07,08,46,993.36
2015,02,07,08,47,993.33
2015,02,07,08,48,993.33
2015,02,07,08,49,993.33
2015,02,07,08,50,993.40
2015,02,07,08,51,993.36
2015,02,07,08,52,993.36
2015,02,07,08,53,993.40
2015,02,07,08,54,993.40
2015,02,07,08,55,993.43
2015,02,07,08,56,993.47
2015,02,07,08,57,993.50
2015,02,07,08,58,993.47
2015,02,07,08,59,993.50
2015,02,07,09,00,993.50
2015,02,07,09,01,993.50
2015,02,07,09,02,993.57
2015,02,07,09,03,993.60
2015,02,07,09,04,993.60
2015,02,07,09,05,993.63
2015,02,07,09,06,993.63
2015,02,07,09,07,993.70
2015,02,07,09,08,993.70
2015,02,07,09,09,993.74
2015,02,07,09,10,993.77
2015,02,07,09,11,993.84
2015,02,07,09,12,993.80
2015,02,07,09,13,993.80
2015,02,07,09,14,993.91
2015,02,07,09,15,993.94
2015,02,07,09,16,993.97
2015,02,07,09,17,993.94
2015,02,07,09,18,993.97
2015,02,07,09,19,993.97
2015,02,07,09,20,994.01
2015,02,07,09,21,994.04
2015,02,07,09,22,994.11
2015,02,07,09,23,994.11
2015,02,07,09,24,994.04
2015,02,07,09,25,994.07
2015,02,07,09,26,994.07
2015,02,07,09,27,994.14
2015,02,07,09,28,994.11
2015,02,07,09,29,994.11
2015,02,07,09,30,994.18
2015,02,07,09,31,994.18
2015,02,07,09,32,994.24
2015,02,07,09,33,994.28
2015,02,07,09,34,994.28
2015,02,07,09,35,994.28
2015,02,07,09,36,994.24
2015,02,07,09,37,994.24
2015,02,07,09,38,994.28
2015,02,07,09,39,994.35
2015,02,07,09,40,994.31
2015,02,07,09,41,994.41
2015,02,07,09,42,994.45
2015,02,07,09,43,994.41
2015,02,07,09,44,994.41
2015,02,07,09,45,994.41
2015,02,07,09,46,994.38
2015,02,07,09,47,994.41
2015,02,07,09,48,994.41
2015,02,07,09,49,994.41
2015,02,07,09,50,994.45
2015,02,07,09,51,994.45
2015,02,07,09,52,994.41
2015,02,07,09,53,994.45
2015,02,07,09,54,994.45
2015,02,07,09,55,994.41
2015,02,07,09,56,994.41
2015,02,07,09,57,994.48
2015,02,07,09,58,994.48
2015,02,07,09,59,994.55
2015,02,07,10,00,994.58
2015,02,07,10,01,994.58
2015,02,07,10,02,994.62
2015,02,07,10,03,994.65
2015,02,07,10,04,994.62
2015,02,07,10,05,994.68
2015,02,07,10,06,994.68
2015,02,07,10,07,994.68
2015,02,07,10,08,994.72
2015,02,07,10,09,994.79
2015,02,07,10,10,994.82
2015,02,07,10,11,994.79
2015,02,07,10,12,994.85
2015,02,07,10,13,994.85
2015,02,07,10,14,994.89
2015,02,07,10,15,994.92
2015,02,07,10,16,994.96
2015,02,07,10,17,994.96
2015,02,07,10,18,994.96
2015,02,07,10,19,994.99
2015,02,07,10,20,994.96
2015,02,07,10,21,994.99
2015,02,07,10,22,994.99
2015,02,07,10,23,994.99
2015,02,07,10,24,994.99
2015,02,07,10,25,994.99
2015,02,07,10,26,994.99
2015,02,07,10,27,995.06
2015,02,07,10,28,995.06
2015,02,07,10,29,995.06
2015,02,07,10,30,995.06
2015,02,07,10,31,995.06
2015,02,07,10,32,995.06
2015,02,07,10,33,995.09
2015,02,07,10,34,995.09
2015,02,07,10,35,995.09
2015,02,07,10,36,995.12
2015,02,07,10,37,995.09
2015,02,07,10,38,995.12
2015,02,07,10,39,995.19
2015,02,07,10,40,995.23
2015,02,07,10,41,995.23
2015,02,07,10,42,995.26
2015,02,07,10,43,995.33
2015,02,07,10,44,995.33
2015,02,07,10,45,995.36
2015,02,07,10,46,995.33
2015,02,07,10,47,995.33
2015,02,07,10,48,995.36
2015,02,07,10,49,995.40
2015,02,07,10,50,995.43
2015,02,07,10,51,995.46
2015,02,07,10,52,995.50
2015,02,07,10,53,995.50
2015,02,07,10,54,995.53
2015,02,07,10,55,995.50
2015,02,07,10,56,995.56
2015,02,07,10,57,995.60
2015,02,07,10,58,995.60
2015,02,07,10,59,995.60
2015,02,07,11,00,995.63
2015,02,07,11,01,995.67
2015,02,07,11,02,995.70
2015,02,07,11,03,995.73
2015,02,07,11,04,995.70
2015,02,07,11,05,995.73
2015,02,07,11,06,995.77
2015,02,07,11,07,995.80
2015,02,07,11,08,995.80
2015,02,07,11,09,995.84
2015,02,07,11,10,995.84
2015,02,07,11,11,995.84
2015,02,07,11,12,995.84
2015,02,07,11,13,995.87
2015,02,07,11,14,995.94
2015,02,07,11,15,995.90
2015,02,07,11,16,995.97
2015,02,07,11,17,996.01
2015,02,07,11,18,996.04
2015,02,07,11,19,996.04
2015,02,07,11,20,996.07
2015,02,07,11,21,996.14
2015,02,07,11,22,996.17
2015,02,07,11,23,996.14
2015,02,07,11,24,996.21
2015,02,07,11,25,996.28
2015,02,07,11,26,996.21
2015,02,07,11,27,996.24
2015,02,07,11,28,996.24
2015,02,07,11,29,996.28
2015,02,07,11,30,996.28
2015,02,07,11,31,996.31
2015,02,07,11,32,996.34
2015,02,07,11,33,996.31
2015,02,07,11,34,996.34
2015,02,07,11,35,996.38
2015,02,07,11,36,996.38
2015,02,07,11,37,996.41
2015,02,07,11,38,996.41
2015,02,07,11,39,996.45
2015,02,07,11,40,996.48
2015,02,07,11,41,996.48
2015,02,07,11,42,996.51
2015,02,07,11,43,996.51
2015,02,07,11,44,996.55
2015,02,07,11,45,996.61
2015,02,07,11,46,996.61
2015,02,07,11,47,996.58
2015,02,07,11,48,996.65
2015,02,07,11,49,996.65
2015,02,07,11,50,996.68
2015,02,07,11,51,996.65
2015,02,07,11,52,996.68
2015,02,07,11,53,996.68
2015,02,07,11,54,996.72
2015,02,07,11,55,996.72
2015,02,07,11,56,996.75
2015,02,07,11,57,996.78
2015,02,07,11,58,996.82
2015,02,07,11,59,996.85
2015,02,07,12,00,996.85
2015,02,07,12,01,996.92
2015,02,07,12,02,996.89
2015,02,07,12,03,996.85
2015,02,07,12,04,996.89
2015,02,07,12,05,996.82
2015,02,07,12,06,996.82
2015,02,07,12,07,996.85
2015,02,07,12,08,996.92
2015,02,07,12,09,996.92
2015,02,07,12,10,996.99
2015,02,07,12,11,996.99
2015,02,07,12,12,997.05
2015,02,07,12,13,997.09
2015,02,07,12,14,997.09
2015,02,07,12,15,997.09
2015,02,07,12,16,997.09
2015,02,07,12,17,997.09
2015,02,07,12,18,997.12
2015,02,07,12,19,997.09
2015,02,07,12,20,997.12
2015,02,07,12,21,997.09
2015,02,07,12,22,997.12
2015,02,07,12,23,997.16
2015,02,07,12,24,997.19
2015,02,07,12,25,997.19
2015,02,07,12,26,997.26
2015,02,07,12,27,997.26
2015,02,07,12,28,997.29
2015,02,07,12,29,997.33
2015,02,07,12,30,997.36
2015,02,07,12,31,997.36
2015,02,07,12,32,997.39
2015,02,07,12,33,997.43
2015,02,07,12,34,997.50
2015,02,07,12,35,997.53
2015,02,07,12,36,997.53
2015,02,07,12,37,997.56
2015,02,07,12,38,997.56
2015,02,07,12,39,997.60
2015,02,07,12,40,997.60
2015,02,07,12,41,997.66
2015,02,07,12,42,997.63
2015,02,07,12,43,997.63
2015,02,07,12,44,997.63
2015,02,07,12,45,997.70
2015,02,07,12,46,997.66
2015,02,07,12,47,997.70
2015,02,07,12,48,997.70
2015,02,07,12,49,997.66
2015,02,07,12,50,997.60
2015,02,07,12,51,997.56
2015,02,07,12,52,997.53
2015,02,07,12,53,997.53
2015,02,07,12,54,997.53
2015,02,07,12,55,997.43
2015,02,07,12,56,997.43
2015,02,07,12,57,997.46
2015,02,07,12,58,997.39
2015,02,07,12,59,997.39
2015,02,07,13,00,997.43
2015,02,07,13,01,997.46
2015,02,07,13,02,997.50
2015,02,07,13,03,997.53
2015,02,07,13,04,997.53
2015,02,07,13,05,997.53
2015,02,07,13,06,997.53
2015,02,07,13,07,997.56
2015,02,07,13,08,997.60
2015,02,07,13,09,997.63
2015,02,07,13,10,997.66
2015,02,07,13,11,997.73
2015,02,07,13,12,997.73
2015,02,07,13,13,997.77
2015,02,07,13,14,997.77
2015,02,07,13,15,997.80
2015,02,07,13,16,997.83
2015,02,07,13,17,997.87
2015,02,07,13,18,997.94
2015,02,07,13,19,997.94
2015,02,07,13,20,997.97
2015,02,07,13,21,997.94
2015,02,07,13,22,997.97
2015,02,07,13,23,997.97
2015,02,07,13,24,997.97
2015,02,07,13,25,997.97
2015,02,07,13,26,997.97
2015,02,07,13,27,997.97
2015,02,07,13,28,997.97
2015,02,07,13,29,998.04
2015,02,07,13,30,998.10
2015,02,07,13,31,998.10
2015,02,07,13,32,998.17
2015,02,07,13,33,998.17
2015,02,07,13,34,998.14
2015,02,07,13,35,998.17
2015,02,07,13,36,998.17
2015,02,07,13,37,998.24
2015,02,07,13,38,998.24
2015,02,07,13,39,998.27
2015,02,07,13,40,998.27
2015,02,07,13,41,998.27
2015,02,07,13,42,998.27
2015,02,07,13,43,998.27
2015,02,07,13,44,998.31
2015,02,07,13,45,998.27
2015,02,07,13,46,998.31
2015,02,07,13,47,998.34
2015,02,07,13,48,998.38
2015,02,07,13,49,998.34
2015,02,07,13,50,998.38
2015,02,07,13,51,998.41
2015,02,07,13,52,998.41
2015,02,07,13,53,998.44
2015,02,07,13,54,998.44
2015,02,07,13,55,998.44
2015,02,07,13,56,998.48
2015,02,07,13,57,998.51
2015,02,07,13,58,998.51
2015,02,07,13,59,998.58
2015,02,07,14,00,998.61
2015,02,07,14,01,998.68
2015,02,07,14,02,998.68
2015,02,07,14,03,998.65
2015,02,07,14,04,998.68
2015,02,07,14,05,998.75
2015,02,07,14,06,998.71
2015,02,07,14,07,998.75
2015,02,07,14,08,998.75
2015,02,07,14,09,998.71
2015,02,07,14,10,998.78
2015,02,07,14,11,998.78
2015,02,07,14,12,998.71
2015,02,07,14,13,998.71
2015,02,07,14,14,998.71
2015,02,07,14,15,998.71
2015,02,07,14,16,998.71
2015,02,07,14,17,998.75
2015,02,07,14,18,998.75
2015,02,07,14,19,998.71
2015,02,07,14,20,998.78
2015,02,07,14,21,998.78
2015,02,07,14,22,998.82
2015,02,07,14,23,998.85
2015,02,07,14,24,998.88
2015,02,07,14,25,998.85
2015,02,07,14,26,998.85
2015,02,07,14,27,998.88
2015,02,07,14,28,998.88
2015,02,07,14,29,998.88
2015,02,07,14,30,998.88
2015,02,07,14,31,998.95
2015,02,07,14,32,998.99
2015,02,07,14,33,998.92
2015,02,07,14,34,998.95
2015,02,07,14,35,998.95
2015,02,07,14,36,998.92
2015,02,07,14,37,998.99
2015,02,07,14,38,998.99
2015,02,07,14,39,998.99
2015,02,07,14,40,999.05
2015,02,07,14,41,999.09
2015,02,07,14,42,999.12
2015,02,07,14,43,999.12
2015,02,07,14,44,999.19
2015,02,07,14,45,999.22
2015,02,07,14,46,999.29
2015,02,07,14,47,999.26
2015,02,07,14,48,999.36
2015,02,07,14,49,999.39
2015,02,07,14,50,999.39
2015,02,07,14,51,999.39
2015,02,07,14,52,999.43
2015,02,07,14,53,999.43
2015,02,07,14,54,999.43
2015,02,07,14,55,999.43
2015,02,07,14,56,999.49
2015,02,07,14,57,999.49
2015,02,07,14,58,999.49
2015,02,07,14,59,999.53
2015,02,07,15,00,999.53
2015,02,07,15,01,999.53
2015,02,07,15,02,999.59
2015,02,07,15,03,999.59
2015,02,07,15,04,999.59
2015,02,07,15,05,999.63
2015,02,07,15,06,999.63
2015,02,07,15,07,999.59
2015,02,07,15,08,999.59
2015,02,07,15,09,999.66
2015,02,07,15,10,999.66
2015,02,07,15,11,999.70
2015,02,07,15,12,999.73
2015,02,07,15,13,999.76
2015,02,07,15,14,999.80
2015,02,07,15,15,999.83
2015,02,07,15,16,999.83
2015,02,07,15,17,999.90
2015,02,07,15,18,999.90
2015,02,07,15,19,999.97
2015,02,07,15,20,1000.00
2015,02,07,15,21,1000.00
2015,02,07,15,22,1000.03
2015,02,07,15,23,1000.00
2015,02,07,15,24,1000.03
2015,02,07,15,25,1000.03
2015,02,07,15,26,1000.03
2015,02,07,15,27,1000.03
2015,02,07,15,28,1000.03
2015,02,07,15,29,1000.03
2015,02,07,15,30,1000.03
2015,02,07,15,31,1000.03
2015,02,07,15,32,1000.03
2015,02,07,15,33,1000.03
2015,02,07,15,34,1000.03
2015,02,07,15,35,1000.07
2015,02,07,15,36,1000.03
2015,02,07,15,37,1000.03
2015,02,07,15,38,1000.03
2015,02,07,15,39,1000.07
2015,02,07,15,40,1000.07
2015,02,07,15,41,1000.10
2015,02,07,15,42,1000.10
2015,02,07,15,43,1000.10
2015,02,07,15,44,1000.07
2015,02,07,15,45,1000.14
2015,02,07,15,46,1000.10
2015,02,07,15,47,1000.10
2015,02,07,15,48,1000.14
2015,02,07,15,49,1000.10
2015,02,07,15,50,1000.10
2015,02,07,15,51,1000.10
2015,02,07,15,52,1000.03
2015,02,07,15,53,1000.07
2015,02,07,15,54,1000.07
2015,02,07,15,55,1000.07
2015,02,07,15,56,1000.07
2015,02,07,15,57,1000.07
2015,02,07,15,58,1000.10
2015,02,07,15,59,1000.10
2015,02,07,16,00,1000.17
2015,02,07,16,01,1000.17
2015,02,07,16,02,1000.10
2015,02,07,16,03,1000.17
2015,02,07,16,04,1000.14
2015,02,07,16,05,1000.14
2015,02,07,16,06,1000.14
2015,02,07,16,07,1000.14
2015,02,07,16,08,1000.17
2015,02,07,16,09,1000.20
2015,02,07,16,10,1000.20
2015,02,07,16,11,1000.24
2015,02,07,16,12,1000.24
2015,02,07,16,13,1000.24
2015,02,07,16,14,1000.27
2015,02,07,16,15,1000.31
2015,02,07,16,16,1000.31
2015,02,07,16,17,1000.31
2015,02,07,16,18,1000.31
2015,02,07,16,19,1000.37
2015,02,07,16,20,1000.41
2015,02,07,16,21,1000.41
2015,02,07,16,22,1000.48
2015,02,07,16,23,1000.48
2015,02,07,16,24,1000.51
2015,02,07,16,25,1000.48
2015,02,07,16,26,1000.51
2015,02,07,16,27,1000.51
2015,02,07,16,28,1000.54
2015,02,07,16,29,1000.54
2015,02,07,16,30,1000.54
2015,02,07,16,31,1000.58
2015,02,07,16,32,1000.54
2015,02,07,16,33,1000.58